Погода в Тикше

Россия / Республика Карелия     64°06′55″N   32°24′48″E
темп.,
°C
ветер,
м/с
пор.,
м/с
влажн.,
%
обл.,
%
осадки,
мм/ч
давл.,
гПа
погр.,
м
18 января, пн
пн1800:00−12з389657 0.0 1011151
03:00−13з369659 0.0 1011128
06:00−12з369675 0.0 1011133
09:00−10з399381 0.0 1011242
12:00−9з3109596 0.0 1012308
15:00−7зюз389598 0.0 1012221
18:00−8зюз3995100 0.0 1011211
21:00−9юз3996100 0.0 1011220
19 января, вт
вт1900:00−10зюз399699 0.0 1010249
03:00−9зюз2896100 0.1 1011218
06:00−9зюз3995100 0.1 1009295
09:00−11зюз369696 0.1 1009129
12:00−9зюз389589 0.1 1009264
15:00−9зюз269685 0.1 1009153
18:00−12з239776 0.0 100949
21:00−12з239760 0.0 101024
20 января, ср
ср2000:00−13зсз229758 0.0 101020
03:00−14ссз129769 0.0 101220
06:00−14ссв119797 0.1 101122
09:00−14всв229697 0.3 101242
12:00−13всв139499 0.1 1013109
15:00−13всв129499 0.1 101338
18:00−14в239793 0.1 101393
21:00−14в239797 0.4 1013103
21 января, чт
чт2100:00−14в249795 0.2 1012110
03:00−14в369694 0.3 1011179
06:00−14в489692 0.1 1009263
09:00−14всв499596 0.2 1008337
12:00−16всв5995100 0.1 1008319
15:00−17всв51195100 0.2 1008333
18:00−19всв51296100 0.1 1007370
21:00−20всв51295100 0.3 1008363
22 января, пт
пт2200:00−21всв51296100 0.1 1008351
03:00−22всв51194100 0.1 1009354
06:00−23в51294100 0.1 1009346
09:00−23в51296100 0.4 1009358
12:00−23в61297100 0.9 1010373
15:00−22в51198100 2.4 1009378
18:00−22в51298100 1.9 1009367
21:00−22в51197100 2.9 1009353